Location: Newark
(41.6500°N, 71.4833°W)
Time: 02:34:26
(UTC+00:00)

deb Explorer IX - Pass Details

Date: 25 January 2020
Orbit: 549 x 1099 km, 38.8° (Epoch: 25 February)

Event Time Altitude Azimuth Distance (km) Brightness Sun altitude
Rises 06:07:57 0° 275° (W) 3,904 - -63.0°
Reaches altitude 10° 06:10:46 10° 272° (W) 2,950 - -62.7°
Maximum altitude 06:17:56 61° 194° (SSW) 1,199 - -61.8°
Drops below altitude 10° 06:24:39 10° 116° (ESE) 2,763 - -60.9°
Sets 06:27:12 0° 113° (ESE) 3,643 - -60.5°
